Temp
16 17 18 18 18 19 20 20 21 21 22 23 23 24 25 26 28 29 35 34 33 32 32 36 36 37 38 40 40 41 38 39 38 38 37 38 37 37 37 36 36 36 36 35 32
15 16 17 18 18 19 19 20 21 21 22 23 23 24 24 25 26 34 33 34 33 32 33 38 40 40 41 41 41 41 40 39 39 40 38 38 38 37 36 35 35 35 36 33 32
15 15 16 18 18 18 19 20 21 21 22 23 24 24 25 25 32 38 33 33 33 33 34 37 39 40 41 42 41 40 39 40 39 39 40 38 38 38 36 36 36 34 34 34 33
14 14 15 17 18 19 20 20 21 22 22 23 24 25 25 25 35 34 32 32 33 32 35 38 40 40 41 41 41 40 40 40 39 38 39 38 38 38 37 37 38 36 34 34 33
14 14 15 17 18 19 19 20 20 22 23 24 24 25 25 33 36 32 32 32 32 33 36 39 40 41 40 41 41 40 40 40 39 38 39 39 38 38 37 38 37 36 34 34 34
13 14 15 17 18 19 19 20 21 22 23 24 24 24 26 33 34 34 33 34 36 36 38 39 40 41 41 41 40 40 41 40 40 39 39 38 38 38 37 37 36 35 34 35 35
13 14 15 17 18 19 19 21 22 23 24 24 24 23 31 35 34 34 34 35 37 37 39 39 40 40 41 40 41 41 40 40 40 40 39 39 37 37 37 36 35 35 35 35 35
13 13 15 17 19 19 20 21 22 23 23 24 24 24 33 33 33 33 34 35 36 37 38 40 39 40 41 42 40 40 40 39 39 40 39 38 30 37 37 36 36 35 35 35 35
13 14 16 18 19 20 21 21 22 22 22 23 24 29 35 32 34 35 36 37 37 37 38 37 39 39 40 39 39 40 38 39 39 40 40 39 38 37 38 37 36 36 35 35 35
13 15 17 18 19 20 22 22 21 22 22 23 27 31 34 36 36 35 35 37 38 38 38 38 39 39 40 39 38 38 40 39 39 40 40 39 39 39 38 38 37 36 35 35 35
13 15 17 18 19 20 22 23 27 27 28 34 34 35 35 35 34 35 36 36 39 38 37 38 38 37 39 40 40 40 40 39 40 39 39 39 40 39 38 38 38 37 36 36 35
13 15 16 18 19 21 19 30 28 27 30 34 34 34 34 34 35 37 36 36 37 37 38 39 37 39 40 40 40 40 39 39 40 40 39 39 39 41 39 38 38 38 37 36 36
12 14 17 19 21 22 27 28 26 27 30 34 34 34 35 34 36 37 37 37 37 37 38 38 39 40 39 40 39 39 39 39 38 40 39 39 39 40 40 40 39 39 39 38 37
12 13 17 19 21 25 28 26 26 26 31 33 33 35 34 36 36 38 37 38 37 37 38 38 39 39 39 38 39 38 40 40 39 38 37 40 38 35 40 39 39 39 39 39 38
12 13 17 15 17 27 27 26 26 28 33 35 35 34 36 36 37 36 37 38 37 37 38 37 38 38 37 38 39 38 40 40 39 38 39 39 39 40 40 40 40 39 40 40 39
12 14 17 18 18 24 25 26 27 30 33 34 35 34 34 36 37 36 36 37 39 37 37 37 39 38 38 39 39 40 39 39 39 39 37 39 39 39 39 27 41 41 41 40 40
14 15 14 15 27 24 25 29 31 33 36 34 35 35 36 36 36 36 35 35 36 35 36 37 38 38 38 38 39 38 38 37 36 37 37 41 39 40 41 40 41 41 41 41 40
16 16 18 18 22 23 26 30 32 35 36 36 36 37 36 37 37 36 36 36 37 38 38 37 36 38 38 37 38 38 39 37 35 37 39 41 39 39 42 42 42 41 42 41 40
17 19 22 24 22 23 29 32 35 35 35 36 36 35 36 37 37 36 37 37 38 38 37 38 37 38 39 39 38 38 37 40 39 40 39 38 25 39 41 41 42 42 42 41 40
16 26 27 23 23 25 30 30 34 34 34 35 35 37 36 36 35 36 37 38 38 38 39 38 36 38 39 38 38 38 40 38 38 36 36 39 37 39 40 40 41 42 41 41 40
19 29 26 24 25 29 31 34 33 34 34 34 35 36 37 37 37 37 37 37 38 38 38 38 38 37 38 37 37 37 37 38 39 39 37 37 38 37 40 40 41 41 42 41 41
26 30 26 25 29 32 33 33 21 34 34 34 34 36 37 37 37 37 37 37 37 38 36 38 38 37 38 39 39 39 38 38 37 36 39 38 38 34 41 41 41 41 41 41 41
28 30 27 27 30 32 33 32 33 33 34 34 34 35 36 36 36 37 37 37 37 37 37 38 37 37 37 39 38 37 38 39 40 40 38 37 36 42 42 41 41 41 41 40 39
26 29 29 29 31 31 32 32 32 33 33 34 34 35 35 35 37 36 36 36 37 37 28 35 37 37 37 37 38 37 37 38 39 38 38 39 39 41 40 40 41 40 40 40 38
28 30 29 30 31 31 31 32 32 32 33 33 33 34 35 35 36 35 37 37 36 28 34 37 36 37 38 38 38 37 38 38 37 38 38 39 37 40 40 40 40 39 38 38 37
25 27 29 30 29 30 25 31 32 33 32 33 33 34 34 34 36 35 36 36 37 36 36 37 35 36 36 37 38 37 37 38 38 39 38 39 38 40 40 41 40 38 38 37 36
23 24 25 26 30 30 31 31 31 32 32 33 33 33 33 33 33 33 35 36 37 35 36 37 36 35 34 37 37 36 37 38 38 39 39 37 39 40 39 39 39 38 37 37 36
Height
805 802 799 797 794 791 788 786 783 781 777 774 771 768 764 761 756 753 747 746 746 746 747 743 741 735 733 723 720 713 740 747 747 747 750 736 741 735 734 744 742 743 742 755 768
805 802 799 796 793 790 787 784 781 778 776 773 770 767 764 760 755 746 744 744 746 746 746 738 730 727 724 719 716 719 737 746 732 727 738 737 737 741 744 750 752 749 748 760 769
804 801 798 795 792 789 785 782 779 776 773 771 768 766 763 760 752 734 739 743 744 744 744 739 732 726 721 714 722 725 744 729 732 730 724 735 737 733 743 747 744 754 757 762 767
804 800 797 794 790 787 783 780 777 774 771 769 766 764 761 760 758 736 739 741 742 743 744 737 728 729 723 727 719 736 724 727 731 732 730 735 732 738 739 744 734 745 755 762 766
802 798 795 792 788 785 781 777 774 771 768 766 764 762 760 751 738 737 740 740 741 742 739 733 729 724 731 721 723 731 727 724 728 731 728 730 737 739 744 736 739 747 756 760 763
800 796 792 789 785 782 778 774 771 768 765 763 762 761 760 753 737 739 740 740 738 739 735 729 725 718 724 725 731 726 724 727 725 729 730 733 736 733 741 738 744 750 755 757 760
798 794 790 786 782 779 775 771 767 764 762 760 760 760 752 739 738 739 739 737 735 734 729 727 723 727 721 729 717 723 734 726 726 725 728 725 749 738 733 739 747 751 753 755 758
795 792 788 784 780 776 772 768 764 761 759 759 759 760 744 736 738 738 737 736 735 734 730 725 727 725 723 713 724 734 729 745 732 724 723 730 768 730 730 739 747 749 752 754 757
793 789 785 781 778 773 768 765 762 760 759 759 759 753 736 736 734 732 733 731 731 732 732 733 732 730 725 742 741 730 756 744 738 721 724 727 740 728 729 735 744 746 750 752 755
791 787 783 779 775 770 765 762 761 760 759 760 756 754 733 729 728 731 731 729 727 728 732 734 733 740 735 740 763 754 741 737 744 730 728 732 729 723 727 731 738 741 746 750 753
789 785 781 777 772 768 763 762 759 757 752 733 732 729 729 729 732 731 729 730 724 727 744 732 746 752 738 729 723 726 734 739 731 729 737 732 729 721 722 728 731 735 742 746 749
787 783 778 774 769 767 763 751 755 760 750 728 731 731 731 732 729 724 727 732 732 742 732 736 749 726 719 719 725 728 745 740 725 724 736 733 731 715 715 723 724 726 732 740 743
786 781 776 772 767 765 760 757 759 758 750 728 725 726 727 731 725 723 725 723 732 738 731 739 727 718 724 726 735 737 744 737 744 726 727 731 733 720 706 707 713 716 718 725 734
784 780 775 770 770 763 757 760 759 758 749 735 730 723 727 723 729 714 720 721 727 738 728 733 718 725 728 733 731 749 724 729 732 749 762 720 758 744 707 713 710 711 713 716 726
783 779 775 773 769 760 760 760 759 756 758 720 723 719 716 722 713 725 717 719 734 734 731 736 731 730 742 736 726 739 718 723 730 743 743 737 745 718 709 711 704 705 704 708 713
780 776 773 772 770 763 762 760 758 763 754 729 718 727 730 721 718 719 725 719 713 728 729 728 709 722 725 720 720 717 728 729 735 741 765 734 734 728 714 765 695 691 692 700 706
776 772 770 771 759 763 762 756 757 748 712 732 725 721 721 724 724 727 733 737 740 756 748 733 728 721 720 733 719 728 741 765 774 766 764 715 728 716 692 692 689 693 691 694 700
770 767 766 764 763 763 760 753 758 721 718 710 713 715 725 716 719 724 730 737 723 722 723 740 748 724 716 729 732 732 733 754 785 766 743 702 728 716 684 679 681 684 685 691 695
767 764 763 760 762 763 755 750 727 718 715 718 718 728 724 716 719 723 725 726 716 718 737 731 738 711 712 712 721 725 744 717 734 721 733 724 778 702 686 688 683 682 684 690 693
768 757 754 759 760 760 752 743 726 721 723 720 727 714 728 724 731 725 725 709 715 709 707 715 745 713 710 714 713 720 703 741 733 767 767 727 729 717 704 698 690 686 690 682 689
767 747 755 758 759 752 745 727 727 721 724 724 720 721 710 718 716 722 720 714 707 709 708 713 723 726 717 729 727 729 732 728 717 725 753 751 729 703 690 689 691 687 683 683 683
757 742 753 756 754 736 732 726 747 722 721 721 722 715 712 709 715 713 720 709 706 705 724 711 714 729 721 698 702 704 717 720 738 746 719 723 730 707 680 680 680 681 682 684 686
749 741 752 752 744 733 725 732 727 726 723 723 723 717 712 716 726 712 709 706 710 711 718 709 726 736 730 711 706 722 713 704 707 704 727 738 739 672 672 677 676 681 680 686 692
757 745 743 745 734 733 728 732 733 724 723 722 721 718 721 723 711 720 717 713 710 708 727 718 717 722 731 725 708 722 719 712 711 724 718 714 707 687 684 686 680 683 684 686 692
752 738 740 741 736 732 729 727 732 734 727 722 727 724 721 728 720 724 712 711 713 728 720 716 729 715 711 709 712 718 714 709 719 712 723 707 719 697 686 687 681 685 689 690 696
762 754 744 737 737 736 746 735 732 724 727 730 731 720 722 728 716 724 713 714 715 710 718 709 732 722 728 713 707 721 713 709 705 702 709 704 706 677 678 677 683 689 694 695 696
769 765 761 743 735 738 731 732 732 728 725 720 720 727 727 724 720 721 715 709 706 718 718 713 720 728 740 715 716 729 709 706 702 694 699 716 697 681 687 688 687 688 692 692 694
Wind_Speed
17 18 18 18 19 20 19 20 20 20 20 20 20 20 19 18 16 9 12 1 2 6 6 8 8 9 6 8 4 10 6 11 12 13 12 4 6 8 4 8 6 4 7 22 26
17 19 18 18 19 20 20 20 20 20 20 20 19 19 18 17 15 16 8 9 8 9 9 12 9 5 12 2 1 10 10 10 9 9 10 7 6 8 5 6 5 6 19 25 25
18 19 20 19 19 21 21 21 21 21 21 20 19 18 15 15 12 12 10 13 13 13 14 13 13 12 17 4 5 7 9 9 9 8 6 8 7 3 6 7 10 12 16 20 23
19 20 21 20 20 20 21 21 22 21 21 20 19 16 14 8 7 8 6 7 12 16 16 16 14 15 14 1 5 6 8 6 4 2 4 4 5 6 8 6 9 14 17 18 19
20 21 21 20 20 20 22 23 23 21 21 20 16 12 7 10 12 6 3 3 6 14 18 14 13 12 12 4 4 2 6 6 5 5 5 5 4 8 7 10 12 16 17 18 17
20 22 22 21 20 21 23 23 23 22 21 17 11 6 9 14 3 5 4 6 12 16 17 16 13 8 13 4 7 7 6 3 3 7 5 5 7 7 9 11 13 16 16 16 17
21 22 22 22 22 23 23 24 23 20 16 11 4 4 11 12 2 7 8 9 12 17 15 16 16 6 16 11 3 7 12 9 8 5 5 8 3 8 14 12 14 15 14 15 15
22 23 23 22 22 23 23 23 18 12 7 2 4 6 10 3 6 10 12 13 11 13 15 12 7 15 13 10 9 10 11 11 2 5 5 11 17 14 15 14 14 15 14 14 16
22 23 22 21 22 23 24 16 8 3 1 2 5 9 9 3 11 13 16 15 14 13 12 3 12 15 17 12 16 12 8 9 8 3 3 8 4 14 13 14 14 15 16 15 16
22 22 21 21 21 23 16 12 6 3 3 6 11 8 7 10 4 7 13 14 13 13 13 13 10 16 16 14 15 1 11 10 3 6 6 11 9 13 15 14 15 15 16 16 17
21 21 21 21 22 16 15 6 5 7 14 10 2 5 2 0 6 12 14 15 15 15 17 19 17 19 21 20 18 10 11 9 7 2 8 12 8 14 16 14 15 16 17 17 17
21 22 22 20 19 7 8 6 7 6 9 11 10 10 5 3 6 11 16 15 15 17 19 18 19 19 20 21 15 17 13 15 10 8 8 12 10 13 18 14 14 16 18 18 18
22 23 23 20 8 4 7 5 5 8 7 9 7 12 11 11 10 15 16 19 14 17 19 19 16 20 22 19 17 12 17 16 10 3 9 17 17 17 11 14 14 15 17 20 19
23 23 21 20 5 6 5 1 8 4 6 10 11 7 8 10 8 6 17 15 9 16 18 13 19 10 14 13 16 18 17 16 15 7 11 3 12 16 16 13 15 16 16 18 20
23 24 20 10 13 5 5 5 8 5 6 9 10 7 14 16 15 11 13 8 13 14 10 17 15 16 15 17 18 20 15 17 7 15 15 18 10 13 16 12 18 15 16 17 22
25 25 19 2 8 10 7 8 7 7 2 8 8 11 14 13 11 12 13 10 7 9 10 17 3 12 16 15 16 17 15 12 13 14 14 18 13 13 3 22 7 11 9 15 18
28 20 13 7 2 3 6 7 7 8 5 8 13 16 17 12 11 14 16 15 10 11 14 15 16 11 12 14 14 13 14 12 13 14 13 19 16 11 11 5 12 7 5 8 18
23 10 8 10 5 6 8 8 8 8 4 4 5 15 12 13 12 16 14 14 16 13 8 9 15 17 12 16 14 17 18 13 15 13 16 21 12 7 11 5 1 3 7 4 15
9 2 7 3 7 7 7 10 2 0 5 7 10 11 10 12 4 9 14 15 13 12 13 5 9 7 9 12 15 17 15 20 22 20 16 4 12 19 4 6 4 8 2 10 12
8 7 4 3 7 9 8 14 3 4 6 8 11 13 10 14 10 11 11 9 8 10 13 2 8 8 8 8 14 18 9 12 12 15 18 16 13 9 6 5 5 4 2 8 12
7 5 6 6 7 7 9 4 3 5 5 5 4 9 9 11 14 14 12 8 5 8 10 13 8 6 5 11 14 12 15 11 19 13 13 13 8 20 8 4 4 5 3 7 5
8 3 8 8 8 9 11 2 4 6 6 4 7 12 6 8 7 9 7 4 3 5 9 12 9 10 12 7 10 16 15 18 9 14 13 9 5 24 9 3 5 4 3 7 4
4 3 6 9 6 7 6 8 8 6 8 6 7 6 4 6 5 6 5 10 2 6 4 4 9 9 9 11 11 9 15 15 19 17 15 13 5 2 7 8 5 8 5 7 4
5 5 5 7 11 13 4 10 10 7 7 4 6 3 8 11 7 7 6 8 5 3 7 6 14 15 11 12 9 10 12 15 17 13 12 11 13 11 6 6 6 14 7 0 7
4 3 6 6 9 10 2 3 10 6 11 7 8 10 8 9 12 10 12 12 8 7 6 7 13 13 6 11 6 11 17 13 16 15 17 15 5 9 6 8 8 6 6 5 9
5 4 2 9 1 6 6 8 10 8 4 11 13 13 8 13 6 5 11 10 9 14 12 11 11 10 11 13 13 11 13 15 19 15 14 18 14 11 7 5 6 10 3 6 10
3 6 5 3 9 9 9 9 8 0 5 9 2 2 12 7 7 9 11 14 12 5 15 10 9 11 14 14 14 12 13 16 15 15 15 14 10 6 8 12 14 6 5 7 12
Wind_Direction
350 347 346 345 344 342 339 337 337 337 336 334 332 333 331 325 311 268 245 77 162 230 242 252 247 255 233 252 255 268 277 54 28 42 93 112 81 59 63 124 53 70 139 139 148
347 346 342 337 338 339 335 332 330 330 330 329 327 328 327 324 304 256 222 247 231 223 231 242 278 265 247 242 249 304 44 23 28 35 81 98 70 93 126 103 124 106 108 137 155
344 344 338 333 333 332 330 328 325 324 324 324 323 323 322 321 267 237 190 229 227 217 243 280 280 265 274 166 14 9 27 11 62 31 56 93 112 112 171 158 130 135 140 152 160
342 340 337 332 331 329 326 324 321 319 319 319 318 318 314 288 229 96 160 213 225 224 245 261 247 248 261 60 105 294 41 17 60 129 106 93 108 111 46 44 105 134 151 159 167
335 335 335 333 330 325 323 321 319 315 314 312 313 310 310 226 253 149 133 262 211 202 230 241 258 259 267 5 316 318 354 66 109 159 130 141 120 97 95 103 112 134 155 165 176
333 333 334 332 326 324 324 319 317 313 309 305 303 283 250 252 76 166 222 227 211 206 222 240 251 301 306 281 288 358 300 74 200 132 156 181 150 188 126 125 133 148 163 170 178
332 332 331 328 325 326 322 320 316 312 305 299 248 238 264 253 263 220 228 227 208 211 227 231 254 244 240 266 83 275 262 173 170 174 167 218 171 170 142 146 150 162 171 173 177
329 330 329 326 326 325 322 320 318 313 307 270 197 242 269 139 246 235 227 222 218 223 251 245 237 265 270 286 261 258 250 238 67 186 165 256 211 115 155 168 165 168 175 175 176
330 331 330 328 329 323 321 318 320 329 311 177 229 234 253 152 219 216 211 219 201 211 217 270 246 242 235 247 249 204 222 279 145 157 319 244 140 129 173 180 177 178 181 181 182
333 332 330 331 329 324 317 312 262 254 255 247 265 256 235 214 153 215 204 231 200 204 207 215 223 235 240 224 242 17 264 163 258 97 229 272 285 147 175 195 187 190 184 188 189
335 332 328 332 328 325 321 272 208 199 222 268 112 263 122 337 198 213 194 211 209 209 215 205 226 230 229 230 268 304 290 313 132 103 283 273 316 174 170 194 197 195 188 193 197
337 331 328 334 328 317 294 274 39 350 292 225 245 261 277 278 216 189 187 201 208 213 218 227 224 237 240 250 238 251 259 252 227 159 264 284 292 293 159 188 209 203 188 199 195
339 333 330 335 324 283 290 49 347 329 254 162 205 215 210 206 235 177 197 210 200 221 223 230 221 212 249 238 243 257 241 257 336 329 285 263 259 250 174 177 197 209 207 190 199
339 333 332 337 288 335 229 152 326 318 262 140 184 162 183 217 222 144 198 204 225 240 236 233 245 245 260 244 247 241 239 259 276 265 272 221 291 197 166 181 186 194 205 201 191
336 331 326 328 306 253 41 307 321 246 241 136 129 118 164 209 125 188 199 216 236 220 243 230 237 239 237 242 237 256 257 264 269 252 260 255 252 277 183 212 185 188 188 209 184
332 326 320 282 233 260 299 297 261 231 166 138 137 178 173 216 203 139 179 241 296 230 223 261 210 259 245 244 245 251 249 257 265 257 255 262 256 268 199 1 119 151 148 187 201
330 317 292 267 52 300 288 252 229 260 165 159 161 163 188 182 165 177 188 199 201 205 211 212 229 227 239 244 230 239 239 241 232 232 245 250 242 253 310 190 33 60 67 184 191
330 305 285 224 259 270 254 233 260 39 124 82 191 174 205 170 174 185 190 207 224 253 266 208 201 204 194 237 232 210 238 236 239 251 252 231 230 216 263 38 299 198 181 152 184
334 251 227 203 222 229 242 226 293 27 65 204 169 191 198 189 248 190 204 219 198 225 261 207 244 112 217 225 241 233 220 255 264 267 272 292 9 267 226 249 292 232 136 155 185
318 242 111 229 196 216 241 264 55 4 294 248 203 215 179 186 205 199 182 211 199 214 246 321 270 170 199 235 232 255 263 229 243 268 273 282 182 238 166 197 319 337 13 148 172
255 232 117 152 185 228 239 215 133 181 265 261 267 201 248 158 214 210 164 126 226 182 235 259 249 144 199 213 232 205 243 249 267 225 252 266 263 3 112 105 285 354 314 55 186
283 237 143 176 213 224 249 198 17 219 190 244 294 305 229 185 220 198 176 145 76 266 212 232 293 241 226 187 215 232 217 241 234 243 275 304 270 175 266 195 209 300 40 56 294
273 53 173 218 246 202 222 244 240 206 216 204 230 259 273 241 241 244 131 88 141 231 324 224 244 245 221 184 187 243 256 245 241 253 245 257 303 69 6 345 325 305 87 149 193
277 198 154 213 279 282 189 227 203 217 289 252 285 262 236 243 239 231 175 163 186 332 24 301 268 285 296 4 350 201 222 251 262 264 266 248 284 289 37 331 328 61 44 271 167
241 344 7 191 224 245 296 344 222 190 228 209 217 256 232 244 210 238 231 149 206 133 241 259 265 300 289 310 295 298 296 224 244 269 277 284 355 298 40 326 29 38 11 238 162
310 328 286 294 348 263 155 227 239 206 251 211 245 206 246 252 291 319 220 235 241 166 236 237 270 283 289 281 259 246 270 269 278 229 260 270 283 327 316 292 5 47 328 200 183
19 265 277 200 246 225 235 239 223 337 233 311 247 270 231 22 11 316 307 306 302 309 290 278 281 304 292 303 299 272 242 243 259 249 240 253 246 314 353 350 323 118 292 192 182